Location: *
(45.9500°N, 9.0833°E)
Time: 20:55:30
(UTC+00:00)

Meteor 1-25 Rocket - Pass Details

Date: 03 March 2021
Orbit: 835 x 893 km, 81.2° (Epoch: 20 April)

Event Time Altitude Azimuth Distance (km) Brightness Sun altitude
Rises 17:29:33 0° 175° (S) 3,473 7.4 -3.7°
Reaches altitude 10° 17:32:03 10° 171° (S) 2,532 6.7 -4.1°
Maximum altitude 17:37:39 56° 95° (E) 1,035 4.4 -5.1°
Drops below altitude 10° 17:43:13 10° 19° (NNE) 2,512 6.5 -6.0°
Sets 17:45:40 0° 15° (NNE) 3,444 7.2 -6.5°
